Location: Caltech
(34.1382°N, 118.1253°W)
Time: 18:18:07
(UTC-07:00)

Cosmos 1626 - Visible Passes

Search period start: 30 July 2014 00:00
Search period end: 09 August 2014 00:00
Orbit: 517 x 523 km, 82.5° (Epoch: 30 July)

Date Brightness Start Highest point End Pass type
(mag) Time Alt. Az. Time Alt. Az. Time Alt. Az.
01 Aug 5.2 05:31:14 10° NNE 05:34:16 22° ENE 05:37:17 10° SE visible
02 Aug 5.3 05:17:44 10° NNE 05:20:29 19° ENE 05:23:14 10° ESE visible
03 Aug 5.4 05:04:18 10° NE 05:06:42 16° ENE 05:09:05 10° ESE visible
04 Aug 5.5 04:50:58 10° NE 04:52:54 13° ENE 04:54:48 10° ESE visible
05 Aug 5.7 04:37:53 10° NE 04:39:05 11° ENE 04:40:17 10° E visible
08 Aug 2.2 05:29:57 10° NNW 05:33:45 64° W 05:37:32 10° S visible
